Buckhead, Georgia, United States (30625)
Lat: 33.57N, Lon: 83.36W
Wx Zone: GAZ049
Local Info
Past Weather Observations for Today

NOTE: This archive is for the closest National Weather Service station to Buckhead. Information may differ from the station used for current weather conditions.

Click here for Long-term Archive

Time Weather Temperature Dewpoint Humidity Pressure Winds Precip Visibility
13:35
Clear
88°F / 31°C 68°F / 20°C 52% 30.04 in
(1017 mb)
SSW 3.5 mph
(SSW 6 kph)
- 10SM
13:15
Clear
88°F / 31°C 68°F / 20°C 52% 30.06 in
(1018 mb)
S 3.5 mph
(S 6 kph)
- 10SM
12:55
Clear
86°F / 30°C 68°F / 20°C 55% 30.06 in
(1018 mb)
Calm - 10SM
12:35
Clear
86°F / 30°C 68°F / 20°C 55% 30.06 in
(1018 mb)
SW 4.6 mph
(SW 7 kph)
- 10SM
12:15
Clear
84°F / 29°C 68°F / 20°C 58% 30.06 in
(1018 mb)
Calm - 10SM
11:55
Clear
82°F / 28°C 68°F / 20°C 62% 30.09 in
(1019 mb)
SSW 3.5 mph
(SSW 6 kph)
- 10SM
11:35
Clear
81°F / 27°C 68°F / 20°C 66% 30.09 in
(1019 mb)
Calm - 10SM
11:15
Clear
79°F / 26°C 68°F / 20°C 70% 30.09 in
(1019 mb)
Calm - 10SM
10:55
Clear
77°F / 25°C 68°F / 20°C 74% 30.09 in
(1019 mb)
Calm - 10SM
10:35
Clear
77°F / 25°C 66°F / 19°C 69% 30.09 in
(1019 mb)
Calm - 10SM
10:15
Clear
75°F / 24°C 68°F / 20°C 78% 30.09 in
(1019 mb)
Calm - 10SM
09:55
Clear
73°F / 23°C 68°F / 20°C 83% 30.09 in
(1019 mb)
SW 3.5 mph
(SW 6 kph)
- 10SM
09:35
Clear
72°F / 22°C 68°F / 20°C 88% 30.09 in
(1019 mb)
Calm - 10SM
09:15
Clear
70°F / 21°C 66°F / 19°C 88% 30.09 in
(1019 mb)
Calm - 10SM
08:55
Clear
68°F / 20°C 64°F / 18°C 88% 30.09 in
(1019 mb)
Calm - 10SM
08:35
Clear
66°F / 19°C 64°F / 18°C 94% 30.09 in
(1019 mb)
S 3.5 mph
(S 6 kph)
- 10SM
08:15
Clear
64°F / 18°C 64°F / 18°C 100% 30.09 in
(1019 mb)
Calm - 10SM
07:55
Clear
64°F / 18°C 63°F / 17°C 94% 30.09 in
(1019 mb)
SE 3.5 mph
(SE 6 kph)
- 10SM
07:35
Clear
64°F / 18°C 63°F / 17°C 94% 30.09 in
(1019 mb)
Calm - 10SM
07:15
Clear
63°F / 17°C 63°F / 17°C 100% 30.09 in
(1019 mb)
Calm - 10SM
06:55
Clear
63°F / 17°C 63°F / 17°C 100% 30.09 in
(1019 mb)
Calm - 7SM
06:35
Clear
Fog And Mist
63°F / 17°C 61°F / 16°C 94% 30.09 in
(1019 mb)
Calm - 5SM
06:15
Clear
Fog And Mist
63°F / 17°C 63°F / 17°C 100% 30.09 in
(1019 mb)
Calm - 5SM
05:55
Clear
63°F / 17°C 63°F / 17°C 100% 30.09 in
(1019 mb)
Calm - 7SM
05:35
Clear
63°F / 17°C 63°F / 17°C 100% 30.06 in
(1018 mb)
Calm - 7SM
05:15
Clear
63°F / 17°C 63°F / 17°C 100% 30.06 in
(1018 mb)
Calm - 7SM
04:55
Clear
63°F / 17°C 63°F / 17°C 100% 30.06 in
(1018 mb)
Calm - 7SM
04:35
Clear
64°F / 18°C 63°F / 17°C 94% 30.06 in
(1018 mb)
Calm - 7SM
04:15
Clear
64°F / 18°C 63°F / 17°C 94% 30.06 in
(1018 mb)
Calm - 7SM
03:55
Clear
64°F / 18°C 64°F / 18°C 100% 30.06 in
(1018 mb)
Calm - 7SM
03:35
Clear
64°F / 18°C 64°F / 18°C 100% 30.06 in
(1018 mb)
Calm - 7SM
03:15
Clear
64°F / 18°C 64°F / 18°C 100% 30.06 in
(1018 mb)
Calm - 10SM
02:55
Clear
66°F / 19°C 64°F / 18°C 94% 30.06 in
(1018 mb)
NNW 3.5 mph
(NNW 6 kph)
- 7SM
02:35
Clear
66°F / 19°C 64°F / 18°C 94% 30.06 in
(1018 mb)
Calm - 7SM
02:15
Clear
66°F / 19°C 66°F / 19°C 100% 30.06 in
(1018 mb)
Calm - 10SM
01:55
Clear
68°F / 20°C 66°F / 19°C 94% 30.06 in
(1018 mb)
Calm - 10SM
01:35
Clear
68°F / 20°C 66°F / 19°C 94% 30.06 in
(1018 mb)
Calm - 7SM
01:15
Clear
68°F / 20°C 68°F / 20°C 100% 30.06 in
(1018 mb)
Calm - 10SM
00:55
Clear
68°F / 20°C 68°F / 20°C 100% 30.06 in
(1018 mb)
Calm - 10SM
00:35
Clear
68°F / 20°C 68°F / 20°C 100% 30.06 in
(1018 mb)
Calm - 10SM
00:15
Clear
70°F / 21°C 68°F / 20°C 94% 30.06 in
(1018 mb)
Calm - 10SM
Time Weather Temperature Dewpoint Humidity Pressure Winds Precip Visibility


Weather for websites

WeatherForYou.com, LLC is not responsible for any damages or problems caused by this service. Current weather conditions are obtained from the closest station including government and personal stations which may have varying degrees of accuracy. Weather forecasts are derived from the NOAA NDFD. Like all things, this site belongs to Jesus Christ... He just trusts me to maintain it. If you have any questions or comments email webmaster@weatherforyou.com

Copyright © 2014, WeatherForYou.com LLC. All rights reserved.